Theta_e
283 283 283 283 283 283 283 282 282 281 280 279 279 278 278 277 277 276 276 275 275 275 275 275 276 276 276 277 277 278 278 280 283 284 285 286 289 291 292 292 292 291 291 291 292 293 293 294 295 296 297 300 301 305 310 311 310 310 309 310 309 308
282 282 281 281 282 282 282 281 280 279 279 278 278 278 277 277 276 275 274 274 274 274 274 275 275 275 275 276 276 276 277 279 280 282 283 286 288 289 291 291 291 290 290 290 291 292 292 293 294 295 296 298 300 303 309 310 310 309 309 309 309 308
282 281 281 281 281 281 281 280 279 279 278 278 278 276 276 275 275 275 274 274 274 273 273 273 274 274 274 275 275 276 276 277 279 280 281 284 285 287 287 290 291 291 290 290 290 291 291 292 292 294 295 297 299 301 307 309 309 308 307 307 307 307
282 282 281 281 281 280 279 279 279 278 278 278 278 277 276 275 275 275 274 274 274 273 273 273 273 273 274 274 274 275 275 276 278 279 280 280 282 283 284 284 288 291 290 290 290 291 291 291 292 293 294 295 297 299 304 309 308 308 308 307 306 306
281 281 281 280 279 279 278 278 278 278 277 277 277 277 276 275 275 275 274 273 273 272 272 272 272 272 273 273 274 274 275 276 277 278 278 279 280 281 282 283 285 288 290 290 290 290 290 291 291 292 293 294 295 298 301 307 309 308 307 306 306 306
280 280 280 280 279 279 278 278 278 277 277 276 276 276 276 275 274 274 274 273 272 272 272 272 272 272 272 272 273 274 275 276 276 277 278 279 280 280 281 283 284 286 289 289 289 289 289 290 290 291 292 293 295 297 300 305 308 309 308 307 307 306
279 279 279 279 279 278 278 277 277 276 275 275 275 275 276 275 274 273 273 272 271 271 271 271 271 271 271 272 272 273 274 275 276 277 277 278 278 279 280 281 283 285 287 289 289 289 289 289 290 290 291 292 294 296 299 303 307 308 307 307 307 304
279 279 278 278 278 278 277 277 276 275 275 275 275 275 274 274 273 273 272 272 271 271 271 271 271 271 271 271 272 273 273 274 275 276 277 278 278 278 278 279 280 282 284 288 289 289 288 289 289 289 290 291 293 295 297 300 306 308 308 307 306 306
278 278 278 278 277 277 276 276 275 275 274 274 274 274 274 273 272 272 272 271 271 271 271 271 271 271 271 271 271 272 273 273 274 274 275 276 277 277 277 277 278 280 283 286 288 288 288 288 289 289 289 290 291 293 295 298 303 307 308 307 307 306
278 277 277 277 276 276 276 275 275 274 273 273 273 274 274 273 272 271 271 271 271 270 270 270 271 271 271 271 271 272 272 272 273 273 275 276 276 276 276 277 277 278 281 284 287 288 288 288 288 288 289 289 290 292 294 297 301 305 307 306 307 306
277 276 276 276 275 275 274 274 273 273 273 273 272 273 273 273 272 271 271 270 270 270 270 271 271 271 271 271 271 271 271 271 272 273 274 275 276 276 276 277 277 277 278 281 285 287 287 288 288 288 288 289 290 292 294 296 299 304 305 306 306 306
276 276 275 275 274 274 273 273 272 272 272 271 271 271 272 272 271 271 270 269 270 270 270 270 270 270 270 270 270 270 271 271 272 273 273 274 275 275 276 276 277 277 278 279 280 283 285 287 288 288 289 290 289 290 292 294 297 302 305 304 304 304
275 275 274 274 273 273 272 272 272 271 271 271 270 270 271 271 270 269 269 269 269 269 269 269 269 269 269 269 269 270 271 271 271 272 272 273 274 275 276 277 276 277 278 279 279 281 282 285 287 289 290 291 291 291 291 292 294 299 304 304 303 303
274 274 273 273 272 272 271 271 271 270 270 270 269 270 270 270 269 268 268 268 268 269 268 268 268 268 268 268 269 269 270 271 271 271 271 272 273 275 276 277 276 277 277 278 279 280 282 284 287 289 290 291 291 291 290 292 293 296 303 304 304 304
274 273 273 272 272 271 271 271 270 269 269 269 269 269 269 269 268 268 268 268 268 268 268 268 268 267 267 268 268 269 269 270 270 270 271 271 273 274 275 275 276 277 277 278 278 279 281 283 287 289 290 291 291 292 291 291 293 295 299 303 304 304
273 273 272 272 271 271 271 270 269 269 269 268 268 268 268 267 267 267 267 267 267 267 267 267 267 267 267 267 267 268 268 269 269 269 270 270 270 271 274 276 276 277 277 277 278 279 281 283 286 288 290 290 291 291 291 291 292 294 298 302 303 304
272 272 271 271 270 270 269 269 268 268 267 267 266 267 267 267 267 267 267 266 267 267 266 266 266 265 266 266 267 267 267 267 267 268 269 269 269 270 273 276 276 277 277 278 278 279 280 282 286 288 289 290 291 291 291 291 292 294 297 302 303 303
271 271 270 270 269 269 268 267 267 266 265 266 265 266 266 266 266 266 266 266 266 266 266 265 265 265 265 265 265 266 266 266 266 267 268 268 269 270 272 275 277 277 277 278 279 280 280 282 285 287 289 290 291 291 290 290 291 293 296 300 301 303
271 270 270 269 268 267 267 267 266 265 264 264 265 265 265 265 265 265 265 265 265 265 265 264 264 264 264 264 264 265 265 265 266 267 268 268 269 269 271 274 277 277 277 277 278 280 281 282 285 287 288 289 291 291 289 289 290 292 295 299 301 302
270 270 268 267 267 266 266 265 265 264 263 264 264 264 264 264 264 265 264 264 264 264 264 264 264 263 263 264 264 264 265 266 266 267 268 268 268 269 270 272 275 277 278 278 279 281 282 283 285 287 289 290 291 290 288 289 290 291 294 298 300 302
269 268 267 266 265 265 265 264 263 263 262 263 263 264 263 263 264 263 263 263 263 263 263 263 263 263 263 263 263 264 264 265 266 267 268 268 268 269 271 273 275 277 279 280 281 282 283 284 286 288 289 290 291 290 289 289 290 291 294 297 298 299
267 266 265 264 264 265 264 263 263 262 262 263 263 263 263 263 263 263 263 263 263 262 262 263 262 262 262 263 263 264 265 266 266 267 267 268 269 269 271 274 276 277 278 280 281 284 285 285 285 286 289 290 291 291 290 290 290 291 294 296 298 297
265 264 264 264 264 263 263 263 262 261 262 262 262 262 262 263 263 262 262 261 261 261 261 262 262 262 263 263 264 265 265 266 266 267 267 268 269 270 272 273 275 277 278 279 281 283 286 286 286 287 289 291 291 292 291 290 291 293 295 296 295 297
264 263 263 263 263 263 262 262 260 261 261 261 261 262 262 262 261 261 261 260 260 260 261 261 262 263 263 264 265 265 266 267 268 268 268 269 269 270 272 274 277 278 279 280 281 284 286 287 288 288 289 290 291 292 292 291 291 294 295 295 296 297
262 262 262 262 262 262 262 261 260 260 261 260 261 261 261 261 260 260 259 259 259 260 260 261 262 263 264 264 266 267 267 268 269 269 270 270 270 271 272 275 278 279 281 283 285 286 286 287 287 288 288 290 291 292 292 293 293 295 295 296 295 296
262 261 261 261 261 261 261 260 259 259 259 259 261 261 260 259 259 259 258 259 259 260 260 261 262 263 265 267 268 269 270 270 271 271 272 272 273 274 276 278 280 281 282 283 283 285 286 287 288 289 289 289 291 292 293 294 294 296 295 296 296 296
260 260 260 260 260 261 260 260 259 259 258 259 260 259 259 258 258 257 257 258 259 260 260 261 262 264 266 267 268 267 268 270 273 273 275 276 277 278 280 281 281 281 282 283 284 285 286 288 288 289 290 290 290 292 293 294 295 296 296 295 296 295
259 258 258 259 260 260 260 260 259 258 258 259 259 258 258 257 257 257 257 258 259 260 261 261 263 265 266 266 267 267 268 269 270 272 276 280 282 282 282 282 282 283 284 284 285 286 287 288 289 289 290 289 290 290 292 294 294 295 295 295 295 294
258 257 257 257 259 259 259 259 259 259 259 258 258 258 257 256 256 256 257 258 259 260 261 262 263 264 265 265 266 267 267 268 269 271 273 276 279 282 283 283 283 283 284 284 285 286 287 287 288 289 290 290 290 290 291 293 294 294 294 294 293 293
257 257 257 257 258 259 258 258 258 258 258 258 257 257 256 256 256 256 257 258 260 261 262 263 264 264 264 264 265 265 266 267 268 269 271 273 275 278 279 281 283 284 284 284 285 286 286 287 288 289 289 289 289 290 292 293 293 294 294 294 294 294
257 257 257 257 258 258 257 257 257 257 257 257 256 256 255 255 256 256 257 259 260 260 262 263 263 263 263 263 264 265 266 266 267 269 272 275 278 278 278 280 282 285 286 286 286 286 286 287 288 288 290 289 290 290 291 292 293 294 295 294 294 292
256 256 256 257 257 257 256 256 256 256 256 256 256 256 255 255 256 256 257 259 259 260 262 262 262 262 263 263 263 263 264 268 271 271 270 271 275 278 280 281 282 284 286 286 286 287 286 287 288 290 291 291 291 292 293 293 293 294 294 294 294 293
257 256 256 256 257 256 255 255 255 255 255 255 256 256 255 255 256 257 258 258 259 261 261 261 261 262 262 262 262 262 263 263 265 270 272 273 274 276 278 279 280 281 282 283 285 287 289 290 291 291 291 291 292 292 293 293 293 293 293 294 292 293
256 255 255 256 256 255 255 254 254 254 254 255 255 255 255 255 256 257 257 258 260 261 261 261 261 261 261 261 261 261 261 261 261 262 268 270 271 273 275 276 277 278 279 281 283 284 287 289 290 291 291 291 291 292 292 292 293 293 293 294 294 292
256 255 255 255 255 254 254 253 253 254 254 254 254 255 255 255 257 257 258 259 260 261 261 260 260 260 260 260 260 260 260 260 260 259 259 262 268 270 272 274 275 276 276 277 279 281 282 284 287 290 291 291 291 291 292 292 293 293 294 294 292 292
255 255 255 254 254 253 253 253 253 253 254 254 254 254 254 255 257 257 258 259 260 260 260 260 260 259 259 260 259 259 259 259 259 259 259 259 259 261 265 269 271 273 274 274 276 278 279 280 281 282 284 287 290 291 292 292 291 294 294 293 292 292
254 254 254 254 253 253 252 252 253 253 253 253 253 254 254 255 256 257 258 260 260 260 260 260 259 259 259 259 259 258 259 258 259 259 258 258 257 258 258 260 263 267 271 269 270 274 276 277 278 278 279 281 283 288 292 292 290 291 291 292 293 292
253 253 253 253 252 252 251 251 253 253 253 253 253 253 254 255 256 257 257 258 259 259 259 259 259 259 259 259 258 258 258 258 258 258 257 257 258 257 257 258 261 262 266 269 268 270 272 274 275 275 276 276 277 278 283 286 288 289 290 290 291 291
Wind_Speed
12 11 11 10 11 14 15 15 14 14 14 17 17 19 18 18 17 17 17 16 15 15 18 18 18 17 18 17 18 17 18 19 18 17 15 15 14 15 12 8 7 6 6 6 7 7 6 6 7 9 11 12 13 15 15 15 15 14 15 17 18 16
10 10 9 9 13 14 13 14 12 14 16 19 18 17 17 18 17 17 17 15 14 17 18 18 16 17 18 18 18 17 18 19 18 19 18 15 13 14 16 10 9 7 7 6 7 7 6 6 7 8 11 11 12 14 15 14 17 18 18 17 17 15
11 10 8 9 11 11 11 11 13 15 16 17 16 17 18 19 19 17 15 14 15 16 17 18 18 19 18 19 18 17 17 18 18 17 16 16 14 13 15 15 12 10 8 7 7 7 7 6 7 7 9 11 13 14 15 15 16 16 14 16 18 17
12 11 10 11 13 14 13 13 15 16 14 16 17 15 15 16 18 18 18 15 14 16 16 16 16 17 17 18 18 18 17 16 16 16 17 16 16 13 14 15 16 12 10 8 7 7 7 7 7 7 8 10 12 15 14 14 17 17 17 14 16 17
10 11 14 15 15 15 14 15 16 14 15 19 20 18 16 16 17 17 16 16 16 18 17 16 16 16 19 20 18 18 17 17 16 16 17 17 15 14 12 13 13 15 12 8 7 7 6 7 7 7 8 10 12 14 15 15 18 19 18 19 19 19
8 12 13 15 14 14 15 15 15 15 17 18 19 21 19 17 16 17 17 17 18 18 18 17 16 18 18 19 18 19 19 17 15 15 17 16 15 15 15 13 13 14 13 10 7 7 7 6 7 8 8 11 12 13 14 15 16 20 21 21 21 20
11 12 13 14 14 14 14 15 15 17 19 18 18 18 19 17 16 17 18 17 19 19 18 19 17 18 18 19 18 20 19 19 16 14 15 16 15 16 15 15 13 12 14 12 9 7 6 6 6 8 9 10 11 13 13 15 14 14 18 20 21 21
12 14 14 14 14 14 14 15 16 17 18 19 17 18 19 19 16 17 19 18 18 19 20 18 21 20 19 19 19 19 18 18 17 17 15 15 16 15 14 14 14 11 14 13 9 7 7 6 6 7 8 10 11 12 13 14 14 16 16 16 18 20
17 16 15 14 14 14 14 15 16 17 18 21 21 18 16 15 16 17 17 19 20 22 20 21 17 18 21 18 17 17 17 17 17 17 18 16 15 14 14 14 14 14 12 14 12 9 8 8 7 7 8 10 11 12 13 14 15 15 16 18 20 20
16 17 16 16 15 15 15 16 16 17 17 18 19 19 17 15 17 19 20 20 22 18 23 20 19 21 20 19 18 17 17 17 16 16 15 15 16 14 12 12 14 14 13 14 12 10 8 9 9 8 8 9 11 11 12 14 15 15 16 17 19 21
16 17 17 16 16 17 18 18 18 17 17 18 18 19 19 17 15 18 21 21 20 24 21 21 22 19 19 19 19 19 18 17 16 15 14 15 14 13 12 10 12 14 16 14 13 11 10 10 10 9 7 9 11 11 12 13 15 15 16 17 18 19
17 16 16 16 17 18 18 19 19 19 19 19 19 19 19 18 19 21 21 20 24 21 21 23 20 20 19 19 19 19 18 17 17 14 15 16 16 17 14 13 12 14 16 15 16 14 13 11 9 11 16 14 11 12 12 12 14 14 15 17 16 16
16 16 16 17 17 18 18 18 19 19 20 19 19 19 19 19 17 21 21 24 23 20 23 20 21 21 19 20 19 17 17 16 14 14 16 15 16 16 16 14 14 12 13 14 14 14 14 13 12 18 18 18 19 14 12 12 13 15 14 16 17 16
17 16 16 17 18 18 17 18 20 20 20 20 20 19 20 17 20 22 24 24 21 22 21 20 19 19 20 18 16 15 13 15 14 14 16 15 18 15 14 13 13 14 13 14 15 15 14 13 16 21 21 19 19 16 13 12 12 14 13 16 18 17
16 16 16 16 16 17 19 19 19 20 19 20 20 19 20 23 20 23 23 20 21 20 22 18 17 17 15 15 15 15 14 15 14 15 13 16 15 15 17 15 15 14 13 14 16 16 15 15 18 22 22 20 19 18 17 12 12 13 14 14 18 18
14 14 15 15 16 16 17 17 16 18 18 18 20 20 20 17 22 24 20 21 21 20 18 17 18 18 17 15 15 14 16 14 15 14 13 14 16 17 17 17 15 14 14 15 16 16 15 16 18 23 22 19 19 19 17 13 13 13 15 15 16 17
15 16 17 15 16 16 16 18 17 18 18 18 20 20 19 23 22 17 21 22 19 17 18 20 20 20 20 19 17 14 14 13 16 13 13 13 14 16 18 16 14 13 13 13 14 15 16 14 23 24 23 20 20 20 17 12 13 13 14 14 15 17
14 16 17 16 16 17 15 17 17 18 20 19 18 19 19 18 20 22 21 18 18 22 21 17 20 20 21 20 20 18 17 16 15 16 14 14 14 15 16 17 15 14 13 14 14 14 16 16 26 25 23 22 20 20 12 11 12 13 14 14 14 16
12 14 15 17 17 16 16 16 17 18 20 19 18 18 19 19 20 20 21 21 22 20 20 22 21 22 22 22 21 20 20 18 18 17 14 15 14 15 15 17 13 12 13 16 17 18 17 16 21 25 24 23 21 15 11 11 11 12 14 14 14 16
10 12 13 17 18 16 14 15 17 18 18 18 18 19 18 17 19 21 20 21 21 21 20 21 21 22 22 22 21 21 20 19 17 15 13 14 14 14 15 15 15 15 14 15 16 16 15 16 18 23 22 23 22 18 12 10 11 12 13 13 14 14
12 14 15 15 17 17 15 17 17 16 18 18 18 17 18 18 18 20 21 23 22 22 21 20 21 21 22 22 22 20 20 19 18 16 14 14 15 16 15 15 14 13 13 13 16 23 22 17 16 21 22 23 22 17 11 11 10 13 13 13 14 13
11 14 16 17 17 16 17 16 15 17 17 16 18 20 19 20 20 21 22 23 22 21 21 20 21 22 21 23 23 21 19 17 16 16 15 15 14 14 14 13 14 15 13 12 15 14 17 17 15 16 23 22 22 23 14 10 12 13 14 13 13 13
8 11 14 14 15 15 15 14 16 17 17 18 18 18 19 22 23 23 22 21 22 22 22 20 19 22 22 20 19 19 18 16 15 15 14 15 14 14 14 15 17 15 15 15 15 16 16 14 15 15 21 22 23 24 20 12 14 14 13 13 14 14
12 13 14 13 13 13 13 14 16 16 17 17 18 20 20 20 21 21 22 23 23 23 22 22 21 19 18 19 18 17 16 14 14 14 14 13 13 15 17 16 15 12 14 14 16 17 15 13 17 14 18 23 24 24 25 16 14 15 13 14 14 14
13 13 15 14 13 13 14 16 16 17 18 20 22 20 20 21 21 22 22 22 22 21 21 21 22 19 16 16 16 16 15 13 11 13 13 14 14 15 17 17 16 14 15 13 10 8 9 11 12 19 17 21 24 24 24 25 18 21 15 14 15 16
12 13 12 13 12 12 13 14 17 18 19 20 20 20 20 20 21 20 20 20 19 20 20 19 20 18 15 14 14 15 15 13 11 11 10 12 13 13 14 13 12 11 11 10 9 8 9 10 11 14 21 18 22 22 23 23 24 22 15 15 14 13
15 15 15 13 13 12 11 12 15 19 21 20 21 21 20 21 22 22 22 23 21 19 17 17 16 15 17 17 16 16 16 17 15 10 10 11 12 13 13 12 10 10 10 10 9 9 8 9 9 10 13 19 19 21 20 21 25 25 23 16 12 12
11 13 16 16 13 12 11 12 13 18 19 20 20 20 20 21 22 23 24 22 21 22 24 19 17 17 17 19 15 14 13 15 15 15 14 11 10 10 10 11 10 10 9 9 9 9 9 9 8 8 9 10 14 15 19 22 25 26 25 21 15 18
12 14 15 17 14 12 12 13 12 13 16 18 19 19 20 21 21 21 21 22 21 21 18 17 16 19 18 16 14 13 13 12 13 13 13 12 13 11 10 10 10 10 9 9 9 9 8 8 7 7 7 7 7 7 11 16 18 24 23 17 13 16
11 13 15 15 15 14 14 13 14 15 17 17 17 19 20 20 20 20 21 23 19 18 16 16 24 22 15 14 15 16 15 13 12 12 12 12 12 13 15 14 11 9 8 8 8 7 7 8 7 6 7 6 6 6 7 10 12 13 13 12 11 13
10 11 13 13 13 14 14 14 15 16 17 17 18 19 20 21 21 16 20 18 18 17 14 16 16 16 16 15 16 13 13 13 15 14 14 13 11 13 16 15 12 8 7 7 7 7 7 7 7 7 7 6 8 8 8 10 11 12 13 15 18 13
9 11 13 12 12 13 14 15 14 15 15 16 16 18 18 18 17 19 19 18 15 13 16 16 16 18 16 16 15 19 18 17 18 16 14 15 23 27 28 25 10 7 6 7 6 6 8 7 7 9 9 9 10 12 14 12 13 15 14 17 23 17
8 9 11 12 12 13 13 14 14 15 16 16 16 16 16 18 16 16 16 14 12 16 17 16 17 18 16 16 17 16 17 19 19 23 25 26 28 25 29 29 30 30 28 18 6 9 11 11 11 9 10 10 11 11 12 15 15 15 13 19 17 14
9 10 12 11 11 13 13 13 13 14 16 17 16 16 16 17 16 15 14 13 13 17 19 16 17 18 17 17 17 16 16 16 18 20 28 33 31 31 28 31 32 31 28 30 26 16 5 9 10 10 11 12 12 12 12 15 15 18 19 20 19 13
9 9 9 10 12 13 12 12 13 13 15 16 17 17 17 17 16 14 17 15 14 16 18 17 17 17 17 18 18 17 17 17 17 18 19 25 30 30 27 30 34 33 31 31 32 33 28 26 17 10 11 11 10 11 13 16 18 18 21 20 10 9
8 8 9 10 12 12 12 13 13 14 16 16 16 16 16 16 16 16 13 13 16 16 16 16 16 16 16 16 17 15 16 16 16 16 16 17 19 24 27 29 33 34 33 31 32 32 32 30 26 28 25 15 3 11 10 13 13 19 22 18 10 8
8 7 9 11 11 11 12 12 12 14 14 15 16 16 16 16 17 14 16 22 18 14 14 14 15 15 15 16 17 17 16 15 16 16 16 16 16 16 16 16 17 25 32 26 23 31 33 31 30 30 28 27 26 10 10 9 6 8 9 10 9 9
7 7 8 9 9 10 11 11 12 14 14 14 15 15 15 15 15 15 13 12 16 15 14 14 14 15 15 15 15 14 15 15 15 16 15 15 14 15 15 15 13 12 16 33 33 36 31 32 33 32 33 34 31 29 19 7 3 5 7 6 2 3
Wind_Direction
318 315 312 317 323 323 318 317 320 320 320 317 312 308 310 312 315 315 314 314 312 311 308 307 307 304 301 301 302 305 304 305 309 312 306 304 305 305 285 265 249 241 244 249 260 266 274 283 286 286 286 285 282 274 234 194 185 191 188 180 177 174
314 310 309 318 323 322 320 317 316 315 314 310 309 310 313 313 312 312 308 309 308 306 306 304 303 303 303 302 303 302 302 305 307 306 303 302 308 310 306 276 257 245 245 245 252 259 267 275 284 286 287 285 279 276 237 201 184 187 187 184 179 174
313 307 309 317 317 313 311 313 314 310 310 309 310 314 315 314 312 311 310 310 306 304 304 304 304 303 302 300 298 297 299 300 302 302 304 304 303 310 311 306 274 250 241 243 245 255 258 266 277 286 289 287 286 280 264 206 182 183 188 180 179 176
311 310 316 320 319 317 319 320 317 313 313 319 314 311 310 313 317 317 313 311 308 306 304 302 302 301 300 298 297 296 296 295 297 301 302 300 301 303 303 305 304 277 250 236 240 248 256 258 268 273 278 280 280 279 276 232 188 187 183 181 176 174
312 321 323 320 318 316 318 319 317 315 323 326 320 316 315 319 315 312 310 309 310 308 306 304 302 301 300 300 298 295 293 293 294 299 299 300 301 300 297 298 301 297 266 241 236 242 252 260 267 268 270 273 273 275 274 253 201 186 185 180 179 178
319 323 321 317 316 319 318 317 314 318 324 323 316 311 313 317 319 316 312 309 307 306 306 305 303 299 297 296 297 295 294 293 294 294 293 295 300 301 303 300 299 302 287 257 243 236 243 257 264 275 274 276 276 275 273 264 225 189 182 183 180 178
321 321 319 317 317 318 318 316 319 321 318 317 314 313 320 322 320 316 311 308 306 305 304 304 304 301 298 295 294 295 295 294 292 290 290 293 294 299 300 300 298 296 293 272 250 246 247 250 263 274 282 282 281 279 276 269 238 198 183 180 179 176
320 321 319 318 320 319 320 320 319 316 314 312 315 314 313 314 315 316 313 310 307 305 304 303 304 301 299 296 294 293 293 294 295 294 292 289 289 292 294 296 296 294 293 283 264 256 255 256 260 267 276 283 285 281 277 274 249 206 185 182 178 176
324 322 320 319 317 320 320 320 317 313 313 313 313 311 309 313 316 312 309 307 306 308 306 306 301 302 299 298 294 294 293 292 293 294 293 291 286 287 291 294 295 294 291 288 277 265 261 262 263 269 275 281 281 277 274 272 262 220 190 185 181 180
321 320 319 320 320 321 321 318 314 312 312 312 315 316 316 317 316 312 310 310 308 305 307 304 303 301 298 296 295 294 294 293 292 289 287 288 286 284 282 289 293 294 293 285 278 266 262 262 266 266 271 275 278 277 271 268 265 230 195 187 184 181
320 319 320 321 322 323 322 319 315 314 312 314 316 316 316 317 314 310 308 308 307 308 304 304 304 300 298 296 294 293 291 290 286 287 288 287 286 285 283 280 283 287 288 284 281 276 265 262 262 262 261 272 277 280 277 271 269 241 202 186 186 183
318 317 320 323 324 323 322 318 316 316 316 316 317 317 318 321 315 311 307 305 309 307 306 304 301 301 299 297 295 293 292 291 291 286 283 280 280 280 278 276 273 276 279 281 277 275 275 269 262 260 258 257 266 278 281 280 276 256 212 185 183 183
316 318 321 323 322 322 321 316 315 316 314 314 316 317 319 319 313 314 310 310 307 307 308 305 301 300 299 297 294 289 285 280 277 281 284 284 281 276 273 267 266 266 271 272 272 267 264 263 260 260 259 259 261 269 279 278 273 269 229 190 180 181
319 321 323 323 323 322 321 320 318 317 315 316 317 317 318 315 315 311 309 307 307 306 307 308 301 296 294 292 287 284 280 279 276 271 272 273 277 274 273 266 264 266 267 268 270 266 260 257 254 255 257 256 258 263 271 276 275 270 245 200 183 183
319 319 322 322 322 321 320 319 316 314 316 316 315 317 316 316 309 311 306 302 303 306 305 303 297 292 286 286 287 286 284 280 276 277 280 281 282 277 265 258 257 254 259 262 266 264 258 256 254 252 252 252 254 261 268 274 274 267 257 217 188 182
315 317 317 317 316 317 314 313 311 309 313 313 314 316 310 310 315 310 306 306 304 303 303 301 300 293 291 289 287 285 286 283 281 281 279 278 277 276 272 262 254 253 254 258 263 265 264 258 251 249 248 248 249 256 263 271 272 267 257 230 196 184
316 317 319 320 320 317 317 315 317 315 315 318 315 314 313 313 305 300 302 300 300 300 303 303 298 297 298 296 291 285 281 280 283 278 277 274 272 273 274 265 253 247 246 248 252 256 259 258 254 251 248 247 246 252 259 265 269 265 258 238 205 185
320 319 318 320 317 317 318 316 319 319 316 315 310 310 308 299 299 304 309 306 306 307 305 302 301 299 297 297 294 288 284 279 276 278 277 276 272 270 274 270 254 250 253 257 256 253 252 251 252 250 247 246 247 250 254 260 262 261 254 238 211 189
318 319 317 316 315 316 318 319 321 316 313 312 311 311 306 306 307 304 304 306 308 307 307 304 301 297 297 296 293 288 284 281 280 277 272 269 269 270 271 271 262 262 262 260 256 254 252 250 248 247 245 244 243 244 248 253 257 254 248 234 211 193
316 315 313 312 311 314 316 320 318 314 310 310 313 314 311 308 304 308 309 310 309 304 302 301 299 297 295 293 288 286 285 281 275 272 271 269 270 269 268 267 265 257 251 252 255 250 247 248 244 242 240 239 240 236 241 245 250 250 240 230 209 196
323 316 313 311 311 316 320 318 315 313 311 311 313 311 306 308 311 314 311 307 308 308 307 303 299 294 292 289 285 283 281 279 276 274 268 264 266 267 270 264 262 261 254 248 246 247 247 246 244 238 238 237 236 235 235 240 243 242 233 217 204 194
321 317 315 314 312 317 319 318 317 315 314 312 314 313 315 316 316 312 309 309 309 308 304 301 298 295 291 287 284 279 272 266 267 266 265 264 262 263 263 265 260 251 248 245 252 253 238 239 240 238 238 236 235 234 234 231 233 232 223 209 196 189
313 305 303 305 312 317 318 320 321 319 320 320 319 315 315 317 315 312 311 309 308 305 299 293 286 283 280 274 271 272 271 270 266 259 257 259 258 256 258 257 258 261 265 262 259 257 247 236 235 237 233 235 236 235 232 227 224 225 212 203 193 188
314 308 306 308 312 316 319 323 321 320 321 320 315 318 321 319 315 312 311 309 305 303 302 299 295 288 280 275 270 268 265 254 247 252 252 250 250 253 258 259 258 253 255 259 253 243 234 227 231 236 236 236 236 235 227 223 220 215 204 197 191 188
315 315 313 316 321 324 327 325 323 324 326 324 322 323 320 317 318 317 314 310 306 301 297 295 289 288 284 277 273 269 268 265 248 242 241 242 245 248 251 253 253 256 259 251 234 229 232 234 237 237 238 237 235 232 227 220 218 210 201 193 190 188
308 308 312 314 322 325 329 329 325 327 326 322 325 320 320 321 319 316 312 311 308 301 297 294 292 287 287 292 299 299 287 277 260 244 236 235 241 247 248 250 249 254 261 258 255 242 236 239 236 240 236 234 231 229 226 220 213 207 197 194 190 185
316 316 314 318 326 329 333 333 328 327 327 325 325 324 325 322 320 318 315 316 315 312 300 289 289 303 313 315 314 310 308 306 300 269 250 243 245 245 252 258 256 254 254 257 255 255 250 242 240 237 238 231 230 228 224 217 208 203 194 191 189 175
313 313 314 319 330 332 337 336 335 329 325 324 326 325 324 322 321 319 318 317 317 318 314 297 303 316 320 318 313 305 306 306 309 310 308 291 264 251 250 251 252 248 249 254 254 257 256 254 247 245 241 231 228 226 220 212 203 198 192 187 178 179
320 319 321 320 330 337 338 336 334 328 323 322 324 324 322 322 320 317 319 321 321 320 314 315 321 323 319 317 314 312 309 308 307 307 306 309 315 305 278 264 256 256 258 253 256 257 263 261 256 249 236 226 215 211 210 203 199 194 189 184 173 169
317 317 322 325 330 337 337 338 335 332 329 324 326 325 324 323 322 318 319 323 323 324 322 323 326 324 320 321 323 320 319 315 311 308 307 309 309 311 311 297 272 257 250 255 253 259 265 266 266 242 227 218 207 202 193 190 186 185 180 175 168 164
315 314 319 322 329 333 336 337 335 333 333 334 329 329 326 323 316 315 320 322 332 326 325 331 325 327 325 321 319 318 316 315 319 320 317 320 322 323 313 277 273 267 252 249 256 263 263 273 269 242 225 208 198 190 183 179 179 175 176 174 163 157
313 318 323 326 332 335 336 337 335 334 334 333 331 330 327 321 322 326 331 334 324 318 336 335 333 330 331 331 330 328 325 328 332 334 335 331 332 337 350 5 358 335 278 260 254 244 258 268 266 255 225 205 199 188 181 178 171 173 169 163 156 150
322 323 325 330 333 336 336 335 335 336 338 336 332 329 324 325 327 331 331 325 321 334 339 336 336 333 335 336 336 334 337 335 336 339 345 346 341 347 358 8 16 18 16 10 310 265 270 265 272 245 209 192 186 182 178 167 155 152 150 156 151 151
333 337 333 333 335 336 336 334 336 338 337 336 333 333 331 331 333 330 327 320 325 339 344 341 338 336 339 340 340 343 345 346 343 336 339 346 348 350 360 10 16 15 15 14 17 17 294 286 286 251 216 196 184 177 166 155 147 145 148 160 156 155
332 329 329 331 335 335 337 336 337 338 338 338 336 336 335 335 336 331 336 326 333 342 344 345 343 342 343 346 345 347 351 352 351 348 339 334 340 349 1 10 14 15 13 16 18 22 21 20 9 302 226 199 187 178 166 158 152 148 150 149 161 164
327 328 331 336 338 336 336 339 339 342 339 337 336 336 335 335 337 338 330 327 336 344 345 347 344 345 347 349 347 347 354 354 353 349 342 341 343 347 349 358 6 10 14 12 18 23 23 21 24 30 27 18 223 176 165 163 160 160 155 154 163 167
328 329 339 341 338 337 340 340 342 340 338 337 338 336 338 339 340 339 331 334 344 352 346 345 343 348 349 354 351 351 352 354 355 354 353 353 352 347 349 337 346 358 13 15 15 18 21 22 24 31 32 28 22 19 166 130 135 155 166 166 165 175
327 335 339 339 339 340 339 341 343 340 338 339 341 340 343 344 344 344 335 333 348 352 351 346 344 346 350 353 350 349 351 354 356 357 357 353 351 354 348 341 345 349 355 16 19 14 14 19 25 34 36 34 32 31 40 57 73 148 171 176 157 188